Flag for Switzerland Weather past 2 weeks in La-Chaux-de-Fonds, Neuchâtel, Switzerland

Now
46 °F

Scattered clouds.


Feels Like: 40 °F
Forecast: 33 / 50 °F
Wind: 15 mph from Northeast

Location: Les Eplatures

Current Time: Apr 18, 2015 at 5:59:08 PM

Latest Report: Apr 18, 2015 at 5:20 PM


Visibility: N/A

Pressure: 30.07 "Hg

Humidity: 57%

Dew point: 32 °F

Location of La-Chaux-de-FondsLocation

Historic Weather in La-Chaux-de-Fonds — Graph

°F

La-Chaux-de-Fonds temperature yesterday

Maximum temperature yesterday: 52 °F (at 11:50 AM)
Minimum temperature yesterday: 46 °F (at 6:20 AM)
Average temperature yesterday: 49 °F

Past Weeks' High & Low Weather Summary

 TemperatureHumidityPressure
High70 °F (Apr 15, 4:20 PM)100% (Apr 3, 9:20 PM)30.48 "Hg (Apr 3, 9:20 PM)
Low27 °F (Apr 6, 3:50 AM)18% (Apr 15, 12:50 PM)29.80 "Hg (Apr 4, 4:20 PM)
Average44 °F65%30.22 "Hg
* Reported Apr 3 4:20 PM — Apr 18 4:50 PM, La-Chaux-de-Fonds, Weather by CustomWeather, © 2015

Note: Actual official high and low records may vary slightly from our data, if they occured in-between our weather recording intervals... More about our weather records

Advertising

La-Chaux-de-Fonds weather history for previous 24 hours

 ConditionsComfort  
Time TempWeatherWind HumidityBarometerVisibility
4:50 PM
Sat, Apr 18
46 °FScattered clouds.15 mph62%30.07 "HgN/A
4:20 PM46 °FScattered clouds.16 mph62%30.07 "HgN/A
3:50 PM46 °FPartly sunny.13 mph62%30.07 "HgN/A
3:20 PM46 °FPartly sunny.14 mph66%30.07 "HgN/A
2:50 PM45 °FOvercast.12 mph71%30.09 "HgN/A
2:20 PM43 °FPartly sunny.10 mph76%30.09 "HgN/A
1:50 PM43 °FPartly sunny.13 mph76%30.09 "HgN/A
1:20 PM41 °FPartly sunny.12 mph81%30.09 "Hg5 mi
12:50 PM43 °FOvercast.10 mph81%30.09 "HgN/A
12:20 PM41 °FPartly sunny.12 mph87%30.09 "Hg4 mi
11:50 AM41 °FPartly sunny.8 mph87%30.09 "Hg4 mi
11:20 AM41 °FPartly sunny.8 mph93%30.09 "Hg1 mi
10:50 AM43 °FPartly sunny.9 mph93%30.07 "Hg1 mi
10:20 AM41 °FLow clouds.9 mph93%30.07 "Hg1 mi
9:50 AM41 °FLow clouds.8 mph93%30.07 "Hg1 mi
9:20 AM41 °FLow clouds.7 mph93%30.04 "Hg1 mi
8:50 AM39 °FLow clouds.10 mph100%30.04 "Hg3 mi
8:20 AM39 °FFog.10 mph100%30.04 "Hg1 mi
7:50 AM39 °FFog.8 mph100%30.04 "Hg1 mi
7:20 AM39 °FFog.8 mph100%30.04 "Hg1 mi
6:50 AM39 °FFog.7 mph100%30.04 "Hg2 mi
6:20 AM41 °FFog.7 mph93%30.04 "Hg1 mi
5:50 AM41 °FFog.5 mph100%30.04 "Hg2 mi
5:20 AM43 °FFog.3 mph93%30.04 "Hg2 mi
4:50 AM41 °FFog.3 mph100%30.04 "Hg1 mi
4:20 AM41 °FDrizzle. Fog.5 mph100%30.04 "Hg2 mi
3:50 AM43 °FDrizzle. Fog.6 mph93%30.04 "Hg2 mi
3:20 AM43 °FSprinkles. Fog.5 mph100%30.04 "Hg2 mi
2:50 AM45 °FPartly cloudy.3 mph93%30.04 "Hg5 mi
2:20 AM45 °FPartly cloudy.5 mph93%30.04 "HgN/A
1:50 AM45 °FMostly cloudy.3 mph93%30.04 "HgN/A
1:20 AM45 °FLight rain. Passing clouds.1 mph100%30.04 "HgN/A
12:50 AM45 °FLight rain. Passing clouds.1 mph93%30.04 "HgN/A
12:20 AM46 °FRain. Passing clouds.5 mph93%30.04 "HgN/A
11:50 PM
Fri, Apr 17
46 °FRain. Passing clouds.5 mph87%30.04 "HgN/A
11:20 PM46 °FLight rain. Partly cloudy.3 mph93%30.04 "HgN/A
10:50 PM46 °FLight rain. Partly cloudy.3 mph93%30.01 "Hg5 mi
10:20 PM46 °FRain. Broken clouds.6 mph93%30.01 "HgN/A
9:50 PM46 °FHeavy rain. Fog.1 mph100%30.01 "Hg1 mi
9:20 PM46 °FRain. Partly sunny.1 mph100%30.01 "Hg5 mi
8:50 PM48 °FRain. Broken clouds.5 mph94%30.01 "Hg4 mi
8:20 PM48 °FRain. Fog.3 mph94%29.98 "Hg2 mi
7:50 PM48 °FLight rain. Fog.6 mph94%29.98 "Hg3 mi
7:20 PM48 °FMostly cloudy.6 mph94%29.98 "Hg5 mi
6:50 PM48 °FMostly cloudy.8 mph94%29.98 "Hg5 mi
6:20 PM48 °FMostly cloudy.8 mph94%29.98 "Hg6 mi
5:50 PM48 °FScattered showers. Mostly cloudy.8 mph94%29.98 "Hg6 mi
5:20 PM48 °FLight rain. Mostly cloudy.8 mph94%29.98 "Hg4 mi
Weather by CustomWeather, © 2015

See weather overviewHow to use our weather pages